CAPE
871 821 911 988 970 995 962 1047 1192 1348 1455 1581 1686 1819 1834 1855 2237 2539 2640 2647 2537 2538 2475 2498 2774 3154 3313 3204 3472 3267 3784 3049 3032 2812 3154 3163 3264 3443 3673 3119 2952 2583
935 951 1386 1058 1071 1379 1078 985 1099 1206 1311 1403 1571 1730 1798 1867 2012 2342 2408 2482 2701 2761 2574 2487 2687 3048 2966 3161 3185 3204 3131 3510 3334 4028 3566 3410 3246 3417 3403 3352 3091 2730
947 966 1072 1102 1010 1054 1133 1092 1095 1115 1212 1339 1462 1573 1634 2005 1962 2058 2187 2264 2384 2496 2576 2554 2761 3114 3072 3062 3016 3316 3325 3084 3258 3041 3680 3581 3028 3152 3180 3271 3354 3186
905 984 1042 1126 1180 1178 1165 1173 1174 1148 1205 1320 1364 1502 1560 1841 2047 1957 1959 2880 2228 2204 2394 2552 2883 3082 3222 3190 3053 3158 3179 3155 3035 2853 2954 3064 3025 3155 3280 3225 3792 3645
854 967 1068 1132 1188 1277 1309 1257 1183 1279 1404 1491 1596 1717 1984 1948 2064 1925 1870 1925 2254 2211 2243 2578 2750 3004 3160 3141 3061 3162 3140 3245 3077 2942 3022 2986 2785 3015 3274 3706 3759 3637
836 901 1012 1123 1164 1192 1206 1171 1074 1327 1501 1573 1716 2074 2083 1990 1989 2108 1958 1833 1840 2028 2162 2376 2630 2898 3071 3097 2933 3055 3062 3169 3149 2997 3078 3112 3079 2958 3351 3806 3709 3376
799 863 926 1026 1133 1119 1090 1058 1093 1477 1461 1620 1743 1924 2130 2111 2093 2176 2152 2063 2014 2040 2075 2256 2490 2726 2872 3036 2887 2893 2894 2889 2860 2846 3024 3074 3059 3104 2948 3094 3276 3184
722 771 823 974 1207 1174 1224 1141 1110 1313 1487 1628 1704 1773 1896 2050 2125 2179 2226 2237 2199 2136 2053 2128 2307 2508 2581 2752 2846 2747 2716 2730 2696 2630 2662 2767 2757 2904 2992 2817 3014 3038
763 830 839 960 1203 1254 1310 1344 1283 1270 1436 1614 1626 1703 1783 1848 1907 1946 2080 2094 2117 2140 2150 2132 2172 2371 2560 2649 2709 2701 2707 2696 2773 2707 2627 2644 2599 2729 2749 2769 2714 2867
924 957 1019 1066 1174 1304 1346 1412 1442 1439 1519 1539 1598 1647 1675 1848 1814 1846 1884 1902 1932 2040 2016 2020 1994 2216 2486 2536 2596 2606 2662 2715 2680 2643 2670 2622 2607 2591 2563 2639 2682 2750
1062 1091 1165 1193 1209 1242 1356 1396 1433 1502 1559 1582 1564 1600 1667 1685 1849 1977 2007 1963 1950 1910 1920 1901 1906 2065 2290 2420 2489 2538 2600 2646 2722 2672 2616 2668 2694 2684 2876 2862 2661 2708
1162 1188 1245 1304 1333 1321 1348 1397 1423 1516 1597 1654 1679 1678 1676 1756 1857 1936 1920 1869 1830 1814 1820 1881 1876 1957 2105 2284 2341 2324 2395 2521 2678 2746 2698 2739 2753 2693 2707 2777 2856 2946
1198 1255 1310 1362 1506 1504 1444 1450 1471 1513 1588 1670 1744 1791 1767 1736 1755 1805 1809 1742 1672 1703 1768 1752 1759 1765 1829 1911 1967 1989 2106 2175 2213 2255 2402 2543 2648 2680 2723 2758 2760 2789
1278 1302 1347 1401 1466 1552 1586 1614 1630 1654 1691 1747 1776 1812 1777 1740 1742 1784 1818 1742 1671 1709 1748 1737 1714 1741 1735 1761 1786 1796 1808 1836 1858 1847 1805 1934 2213 2494 2574 2644 2741 2754
1454 1433 1430 1480 1519 1574 1627 1672 1710 1716 1712 1727 1761 1812 1816 1766 1783 1812 1790 1686 1624 1662 1674 1657 1642 1658 1688 1655 1616 1567 1528 1527 1521 1498 1439 1607 1796 1954 2190 2394 2505 2535
1778 1719 1656 1600 1557 1580 1606 1649 1697 1736 1736 1725 1702 1690 1684 1718 1752 1765 1752 1688 1580 1470 1328 1310 1406 1543 1578 1669 1756 1469 1439 1384 1270 1298 1301 1305 1457 1727 1802 1950 2145 2302
2020 2018 2022 1986 1915 1797 1737 1738 1739 1756 1746 1716 1654 1610 1618 1649 1657 1678 1686 1652 1586 1513 1476 1310 1325 1322 1492 1594 1472 1304 1360 1150 1267 1221 1199 1221 1232 1504 1630 1644 1739 1714
1945 2055 2196 2174 2140 2088 2040 2004 1905 1714 1592 1524 1452 1406 1464 1538 1581 1595 1616 1592 1546 1493 1422 1336 1283 1324 1335 1078 977 1074 1132 1319 1262 1166 1114 1179 1155 1049 1199 1336 1428 1457
1447 1740 1983 2118 2060 1976 1874 1819 1735 1587 1422 1179 959 1007 979 1088 1199 1335 1424 1466 1448 1378 1324 1340 1257 1303 1346 1293 1116 1065 1114 1228 1526 1386 1389 1218 1157 1228 1192 1299 1350 1376
1345 1553 1733 1737 1694 1624 1380 1319 1241 1302 1319 1333 1309 1110 1033 1006 997 1011 1069 1184 1234 1207 1064 1079 1136 1201 1217 1194 1229 1213 1119 1193 1216 1299 1278 1292 1166 1055 1018 1158 1325 1354
1019 1140 1180 1238 1095 1019 1093 1185 1162 1312 1443 1517 1534 1494 1477 1411 1286 1206 940 851 845 898 848 934 1005 1085 1119 1161 1203 1177 1127 1244 1273 1214 1132 1122 1046 982 1149 1229 1231 1341
694 591 645 643 758 840 923 1026 1170 1332 1456 1398 1384 1449 1501 1500 1499 1462 1442 1244 974 861 913 899 957 1001 1002 941 880 919 1040 1062 1034 1049 1084 1025 862 841 946 1017 1007 1131
637 673 975 995 1200 1175 1127 1073 1182 1328 1395 1446 1469 1479 1475 1478 1548 1588 1450 1362 1258 1206 1258 1151 1095 984 917 806 750 751 672 679 725 726 717 726 736 720 709 785 910 1029
892 1064 1150 1083 1031 982 1138 1194 1153 1121 1183 1220 1268 1404 1404 1372 1318 1306 1293 1325 1331 1374 1413 1402 1367 1303 1224 1132 1041 968 902 807 736 743 776 820 813 806 724 811 939 1190
851 1012 1040 1048 1048 911 843 974 1028 1106 1169 1115 1153 1228 1239 1116 1016 1117 1187 1159 1126 1007 1126 1243 1275 1297 1302 1252 1164 1110 1012 922 860 809 806 862 867 850 798 637 684 1271
1058 915 949 699 576 572 546 732 748 792 808 826 832 728 671 633 649 684 706 742 801 882 914 890 880 862 922 1020 1087 1134 1097 978 861 789 810 847 863 833 1136 1027 838 769
Wind_Speed
8 8 7 7 6 5 4 4 4 4 4 5 4 4 3 3 3 3 3 4 3 3 4 4 3 3 3 2 1 0 0 1 1 0 1 1 1 2 2 2 1 1
9 9 10 9 9 9 8 6 5 4 4 4 5 5 6 5 4 4 4 3 4 3 3 3 3 3 2 1 0 1 1 1 1 2 1 0 1 2 1 2 1 2
11 11 10 9 9 8 7 7 7 6 6 6 6 6 6 6 6 5 5 5 4 4 4 4 3 3 2 2 1 1 2 2 2 2 2 1 1 1 0 2 2 2
12 12 12 11 10 8 9 10 9 9 9 9 7 6 7 7 7 7 6 6 5 5 5 5 3 4 3 3 3 2 2 2 2 3 2 2 2 2 1 2 2 3
13 14 14 13 12 11 12 11 10 10 9 8 9 8 8 8 8 8 8 7 7 6 7 5 5 4 4 4 5 3 3 2 2 3 3 2 3 4 3 2 2 1
14 14 15 15 14 14 14 13 11 11 10 10 8 10 10 9 9 9 9 8 8 8 7 7 5 5 5 5 6 5 4 3 3 4 3 3 2 3 3 2 1 1
14 15 15 17 17 16 16 15 14 13 12 10 13 11 12 11 10 9 9 9 9 8 7 6 5 5 6 6 7 6 5 4 4 5 5 4 4 2 3 3 2 1
16 16 17 17 16 17 17 17 15 15 14 14 13 12 13 12 11 12 11 10 9 8 7 6 6 5 7 8 8 7 6 6 5 5 5 4 6 4 4 5 4 3
18 19 18 17 16 17 17 18 17 17 17 16 15 15 15 14 13 13 12 11 10 9 8 8 7 8 9 9 9 9 7 7 6 7 6 5 5 4 4 5 5 5
19 19 19 18 17 18 18 18 19 20 19 18 17 17 16 16 15 14 14 12 11 11 10 10 10 11 11 11 11 11 10 8 8 8 8 7 6 5 4 5 5 6
19 20 20 18 18 20 19 20 20 21 21 19 20 19 18 18 17 17 15 14 14 13 12 12 12 13 12 12 12 12 11 10 10 10 9 8 8 7 6 5 6 6
20 21 21 20 20 20 20 20 21 20 21 21 20 19 18 18 17 18 17 14 14 13 13 13 13 13 13 13 13 14 14 13 12 11 11 10 9 8 8 7 6 5
21 21 23 23 22 21 22 21 20 20 19 19 20 19 18 18 17 16 16 15 15 15 15 14 14 15 15 15 16 17 17 16 14 14 13 12 11 9 9 9 8 6
21 23 24 25 26 27 26 25 24 23 21 20 20 18 18 18 16 15 15 16 16 17 16 16 16 17 17 17 18 18 18 17 16 15 14 13 13 12 11 10 9 7
24 26 28 29 29 29 27 26 25 24 25 24 23 21 21 19 17 16 16 17 19 19 18 19 20 19 20 19 18 18 19 17 17 16 15 15 15 14 13 12 11 10
26 27 28 30 30 28 27 27 27 26 26 26 25 25 23 22 20 19 19 19 20 20 20 21 20 21 18 16 17 19 19 19 19 18 18 18 17 16 15 14 12 12
29 28 30 29 29 29 29 28 27 28 28 28 27 27 26 25 23 21 20 22 22 22 21 22 22 26 30 28 23 16 17 19 19 20 20 19 19 18 16 15 14 13
32 31 29 29 30 29 29 29 30 30 30 30 29 27 26 27 24 23 23 25 27 26 24 24 27 26 20 19 16 13 15 17 20 20 20 20 20 20 19 18 16 14
33 27 26 29 31 32 32 31 33 35 36 33 29 27 27 25 25 26 25 26 26 25 24 25 24 24 23 22 20 18 18 18 21 20 20 20 21 21 21 21 21 20
37 32 32 36 38 38 38 37 38 36 35 33 32 31 29 28 31 30 30 29 27 26 28 28 25 27 27 27 27 26 26 25 24 23 21 21 21 21 22 23 24 25
43 41 41 44 44 42 41 41 37 33 32 33 33 34 32 32 33 35 32 32 31 28 26 26 29 32 30 30 30 27 25 23 25 22 21 21 22 21 22 23 26 28
47 46 41 43 45 44 42 40 37 34 34 35 37 37 35 33 34 32 30 28 28 29 26 30 34 36 33 31 29 27 25 25 25 24 21 22 23 23 23 25 27 29
49 46 43 43 44 44 41 39 40 39 39 39 39 38 34 35 35 33 31 32 33 35 35 34 36 38 37 36 33 30 29 29 28 26 24 24 25 23 23 24 27 29
45 45 45 42 41 42 44 45 43 43 42 41 39 35 34 36 36 35 35 36 37 38 38 39 40 40 41 41 39 36 32 32 30 28 26 27 26 25 25 27 27 24
42 44 45 45 42 43 46 45 43 43 45 42 37 34 35 36 35 38 39 41 42 42 44 43 40 42 45 43 41 39 36 35 32 30 28 27 26 24 25 25 26 26
40 42 42 42 41 41 44 42 38 40 45 44 40 40 39 37 38 42 43 43 42 41 41 40 40 40 42 43 41 39 38 37 35 33 31 30 30 28 26 24 26 27
Wind_Direction
211 202 193 193 189 190 196 190 183 184 175 179 178 170 178 175 203 200 202 216 199 177 160 154 159 147 146 138 138 213 250 73 99 33 76 197 200 208 182 184 281 335
226 222 207 201 198 198 198 196 197 195 188 188 181 189 190 204 206 223 222 215 219 196 184 182 180 163 159 169 235 303 299 281 44 274 314 342 195 221 173 167 177 272
234 234 230 226 217 212 209 207 206 199 202 198 204 203 201 207 211 223 223 223 222 213 206 201 201 196 195 201 263 287 308 325 353 297 310 347 282 293 179 190 219 271
232 236 239 237 231 228 221 221 215 212 208 212 213 212 214 214 221 221 224 219 224 222 222 225 220 222 233 244 266 265 295 316 322 302 333 328 341 338 355 282 251 261
237 237 238 238 236 233 232 229 225 224 222 217 219 221 221 223 228 227 225 218 222 221 230 229 230 236 252 261 274 278 284 291 294 305 332 15 4 351 356 314 290 260
228 234 238 240 241 238 236 235 231 231 229 228 227 229 227 230 229 228 230 226 223 222 226 233 239 244 260 275 277 289 293 293 299 307 329 1 6 330 327 321 295 246
232 233 235 236 237 237 236 235 232 231 231 226 232 230 233 233 232 230 232 232 231 229 230 238 254 259 270 277 286 294 293 307 304 306 323 324 319 325 313 311 316 324
233 233 234 236 238 237 237 237 234 234 233 231 232 230 236 233 233 229 231 233 232 234 234 241 250 260 268 275 281 286 285 277 285 293 300 306 298 313 316 311 316 329
238 236 237 239 240 239 238 238 237 236 236 235 230 229 233 232 231 231 229 233 229 226 229 231 239 243 251 262 267 272 271 265 265 271 272 267 274 291 300 297 302 309
245 244 243 241 241 239 241 240 238 238 239 235 233 230 230 230 232 230 230 229 228 224 228 227 232 235 240 247 255 258 259 260 262 260 256 251 253 256 266 284 296 290
248 249 248 245 241 240 242 241 240 240 240 239 236 232 229 231 232 233 230 231 229 230 229 233 237 243 247 248 252 258 263 261 261 264 260 258 257 255 246 253 266 281
247 249 251 251 248 246 248 248 247 247 247 246 246 240 236 236 236 237 236 234 236 236 237 237 241 244 248 250 253 256 257 257 259 263 264 264 261 261 256 252 246 251
250 249 249 252 253 252 250 251 252 251 252 253 254 253 249 244 242 240 239 240 242 244 244 245 246 248 248 249 251 254 257 257 255 254 252 252 254 256 256 256 255 245
252 249 247 248 249 251 252 252 251 250 248 245 246 249 251 251 248 246 242 246 246 249 247 247 246 247 248 249 250 253 257 257 258 256 255 254 254 254 251 252 258 258
251 248 246 247 247 248 250 252 252 252 251 249 247 244 241 242 244 247 246 248 248 249 250 250 249 248 250 253 256 257 257 257 259 260 258 257 255 256 257 257 256 256
252 250 248 247 247 246 246 247 248 248 248 249 248 248 246 242 239 240 246 251 253 254 255 257 254 255 260 275 274 267 266 260 259 261 262 260 258 257 255 258 258 259
250 250 248 247 246 244 241 241 241 241 242 243 244 246 246 247 247 245 247 251 257 261 264 264 262 253 245 242 234 227 244 253 261 263 263 262 261 260 256 253 254 260
233 242 249 248 248 246 243 240 239 239 239 239 237 240 245 250 252 252 250 253 255 255 256 256 258 269 284 288 288 289 284 275 268 265 267 267 265 264 261 255 252 255
249 244 244 248 248 248 246 243 238 235 235 238 239 241 245 248 250 252 252 253 255 258 260 259 257 254 249 247 256 268 272 268 265 268 268 268 268 268 266 263 259 257
254 251 250 246 244 245 245 243 243 242 243 245 244 241 245 244 244 244 245 247 249 251 254 254 255 252 251 247 245 246 250 254 255 254 260 261 262 264 266 267 266 265
250 245 246 249 248 246 246 246 246 245 243 242 242 240 240 242 242 243 241 240 240 245 252 257 248 244 245 246 246 249 249 253 260 260 261 268 273 272 270 269 269 267
249 248 247 249 251 250 251 252 251 247 244 240 239 239 242 247 248 250 252 252 252 253 254 250 249 243 241 241 243 248 253 259 265 268 264 265 270 272 269 266 265 266
248 247 246 247 248 248 247 245 244 241 239 240 241 240 242 245 248 249 250 249 248 247 248 250 249 243 243 242 243 245 254 259 263 266 269 270 271 272 268 265 265 268
245 244 247 251 253 251 246 243 241 239 236 236 241 240 238 241 245 246 244 246 249 252 253 252 250 245 244 246 247 245 250 255 257 261 262 263 266 267 265 264 265 272
244 245 246 250 250 245 245 244 242 238 238 241 244 244 243 247 249 250 250 249 249 250 252 252 249 245 242 244 246 246 252 257 258 260 260 260 261 262 264 267 271 271
248 248 245 245 247 248 245 244 245 245 240 239 242 243 243 243 246 246 247 248 249 250 251 253 252 248 244 245 246 247 250 259 259 258 253 249 249 250 255 263 265 268